Location: Jackson Park
(37.2862°N, 79.9123°W)
Time: 20:14:41
(UTC+00:00)

Vanguard 2 Rocket - Pass Details

Date: 17 May 2026
Orbit: 553 x 3286 km, 32.9° (Epoch: 6 June)

Event Time Altitude Azimuth Distance (km) Brightness Sun altitude
Rises 22:04:49 0° 283° (WNW) 6,942 12.7 25.6°
Reaches altitude 10° 22:09:50 10° 276° (W) 6,104 13.1 24.6°
Maximum altitude 22:26:36 36° 219° (SW) 4,322 10.9 21.3°
Drops below altitude 10° 22:41:27 10° 160° (SSE) 5,371 10.6 18.4°
Sets 22:45:35 0° 152° (SSE) 6,051 10.7 17.6°
